Weather History for Branson, MO

Change the Weather History Date:

Sunday, April 28, 2013

  Actual Average (KHRO) Record (KHRO)
Temperature  
Mean Temperature 60 °F 61 °F  
Max Temperature 71 °F 72 °F 94 °F (1927)
Min Temperature 48 °F 51 °F 30 °F (1928)
Degree Days  
Heating Degree Days 6 5  
Month to date heating degree days 231  
Since 1 July heating degree days 3911  
Cooling Degree Days 0 1  
Month to date cooling degree days 28  
Year to date cooling degree days 34  
Growing Degree Days 10 (Base 50)    
Moisture  
Dew Point 48 °F    
Average Humidity 81    
Maximum Humidity 100    
Minimum Humidity 38    
Precipitation  
Precipitation 0.00 in 0.17 in 2.28 in (1915)
Month to date precipitation 3.99  
Year to date precipitation 12.98  
Snow  
Snow 0.00 in 0.00 in - ()
Month to date snowfall 0.3  
Since 1 July snowfall 11.5  
Snow Depth -    
Sea Level Pressure  
Sea Level Pressure 29.98 in    
Wind  
Wind Speed 4 mph (West)    
Max Wind Speed 13 mph    
Max Gust Speed -    
Visibility 10 miles    
Events      
T = Trace of Precipitation, MM = Missing Value Source: NWS Daily Summary

Daily Weather History Graph

Daily Weather History Graph

Search for Another Location

Airport:

Trip Planner

Search our weather history database for the weather conditions in past years. The results will help you decide how hot, cold, wet, or windy it might be!

Date:

Astronomy

Apr. 28, 2013 Rise Set
Actual Time 6:22 AM CDT 7:58 PM CDT
Civil Twilight 5:54 AM CDT 8:26 PM CDT
Nautical Twilight 5:21 AM CDT 8:59 PM CDT
Astronomical Twilight 4:47 AM CDT 9:34 PM CDT
Moon 11:26 PM CDT (4/28) 8:42 AM CDT (4/28)
Length of Visible Light 14h 31m
Length of Day
13h 36m
Waning Gibbous, 88% of the Moon is Illuminated
Apr 28
Waning Gibbous
May 2
Last Quarter
May 9
New
May 17
First Quarter
May 24
Full

Hourly Weather History & Observations

Time (CDT) Temp. Dew Point Humidity Pressure Visibility Wind Dir Wind Speed Gust Speed Precip Events Conditions
12:15 AM 50.0 °F 50.0 °F 100% 30.03 in 10.0 mi Calm Calm - N/A   Overcast
12:35 AM 50.0 °F 50.0 °F 100% 30.02 in 10.0 mi WNW 3.5 mph - N/A   Overcast
12:55 AM 50.0 °F 50.0 °F 100% 30.02 in 10.0 mi West 3.5 mph - N/A   Overcast
1:15 AM 50.0 °F 50.0 °F 100% 30.01 in 10.0 mi WSW 3.5 mph - N/A   Overcast
1:35 AM 50.0 °F 50.0 °F 100% 30.01 in 10.0 mi Calm Calm - N/A   Overcast
1:55 AM 50.0 °F 50.0 °F 100% 30.01 in 10.0 mi WNW 3.5 mph - N/A   Overcast
2:15 AM 50.0 °F 50.0 °F 100% 30.00 in 10.0 mi WNW 4.6 mph - N/A   Overcast
2:35 AM 50.0 °F 48.2 °F 94% 29.99 in 10.0 mi NW 4.6 mph - N/A   Overcast
2:55 AM 50.0 °F 48.2 °F 94% 29.99 in 10.0 mi NW 5.8 mph - N/A   Overcast
3:15 AM 48.2 °F 48.2 °F 100% 29.99 in 9.0 mi Calm Calm - N/A   Overcast
3:35 AM 48.2 °F 48.2 °F 100% 29.99 in 8.0 mi Calm Calm - N/A   Overcast
3:55 AM 48.2 °F 48.2 °F 100% 29.99 in 8.0 mi Calm Calm - N/A   Overcast
4:15 AM 48.2 °F 48.2 °F 100% 29.99 in 8.0 mi NW 5.8 mph - N/A   Overcast
4:35 AM 48.2 °F 48.2 °F 100% 30.00 in 8.0 mi NW 6.9 mph - N/A   Overcast
4:55 AM 48.2 °F 48.2 °F 100% 30.00 in 7.0 mi NW 5.8 mph - N/A   Overcast
5:15 AM 48.2 °F 48.2 °F 100% 30.01 in 9.0 mi NW 3.5 mph - N/A   Overcast
5:35 AM 48.2 °F 48.2 °F 100% 30.00 in 7.0 mi WNW 3.5 mph - N/A   Overcast
5:55 AM 48.2 °F 48.2 °F 100% 30.01 in 7.0 mi NW 5.8 mph - N/A   Overcast
6:15 AM 48.2 °F 48.2 °F 100% 30.00 in 6.0 mi NW 6.9 mph - N/A   Overcast
6:35 AM 48.2 °F 48.2 °F 100% 30.01 in 10.0 mi Calm Calm - N/A   Overcast
6:51 AM 48.2 °F 48.2 °F 100% 30.01 in 10.0 mi WNW 4.6 mph - N/A   Overcast
8:53 AM 50.0 °F 46.4 °F 87% 30.04 in 10.0 mi WNW 4.6 mph - N/A   Overcast
9:54 AM 51.8 °F 46.4 °F 82% 30.05 in 10.0 mi NW 9.2 mph - N/A   Overcast
10:55 AM 53.6 °F 46.4 °F 77% 30.04 in 10.0 mi NNW 12.7 mph - N/A   Mostly Cloudy
11:45 AM 55.4 °F 46.4 °F 72% 30.03 in 10.0 mi NW 5.8 mph - N/A   Scattered Clouds
12:45 PM 59.0 °F 48.2 °F 67% 30.01 in 10.0 mi WSW 5.8 mph - N/A   Partly Cloudy
1:56 PM 64.4 °F 48.2 °F 56% 29.98 in 10.0 mi SW 5.8 mph - N/A   Partly Cloudy
2:50 PM 66.2 °F 48.2 °F 52% 29.97 in 10.0 mi WNW 6.9 mph - N/A   Partly Cloudy
3:50 PM 68.0 °F 48.2 °F 49% 29.95 in 10.0 mi West 5.8 mph - N/A   Clear
4:45 PM 69.8 °F 44.6 °F 40% 29.93 in 10.0 mi West 3.5 mph - N/A   Clear
5:45 PM 71.6 °F 44.6 °F 38% 29.92 in 10.0 mi Calm Calm - N/A   Clear
6:45 PM 69.8 °F 44.6 °F 40% 29.92 in 10.0 mi SSE 4.6 mph - N/A   Clear
7:45 PM 64.4 °F 50.0 °F 59% 29.92 in 10.0 mi SE 4.6 mph - N/A   Clear
8:45 PM 60.8 °F 48.2 °F 63% 29.92 in 10.0 mi South 3.5 mph - N/A   Partly Cloudy
9:15 PM 59.0 °F 48.2 °F 67% 29.93 in 10.0 mi SE 6.9 mph - N/A   Clear
9:35 PM 60.8 °F 48.2 °F 63% 29.93 in 10.0 mi SSE 6.9 mph - N/A   Clear
9:55 PM 59.0 °F 48.2 °F 67% 29.93 in 10.0 mi SSE 6.9 mph - N/A   Clear
10:15 PM 59.0 °F 48.2 °F 67% 29.93 in 10.0 mi SSE 8.1 mph - N/A   Clear
10:55 PM 59.0 °F 48.2 °F 67% 29.92 in 10.0 mi SSE 6.9 mph - N/A   Clear
11:15 PM 59.0 °F 48.2 °F 67% 29.92 in 10.0 mi South 6.9 mph - N/A   Clear
11:35 PM 57.2 °F 48.2 °F 72% 29.91 in 10.0 mi SSE 6.9 mph - N/A   Clear
11:55 PM 57.2 °F 50.0 °F 77% 29.91 in 10.0 mi South 6.9 mph - N/A   Clear